Temp
-6 -5 -5 -5 -5 -4 -5 -5 -6 -7 -7 -7 -8 -8 -8 -6 -6 -6 -5 -5 -4 -5 -4 -5 -5 -4 -4 -4 -3 -3 -3 -3 -3 -3 -3 -3 -3 -3 -3 -3 -3 -3 -3 -3 -3 -3 -3 -4 -4
-5 -5 -5 -5 -5 -4 -5 -5 -5 -7 -7 -7 -8 -8 -7 -7 -6 -6 -6 -5 -4 -5 -4 -5 -5 -5 -4 -4 -4 -4 -3 -3 -3 -3 -3 -3 -3 -3 -3 -3 -3 -3 -3 -3 -3 -4 -4 -4 -4
-5 -5 -5 -4 -4 -4 -5 -5 -6 -7 -7 -6 -7 -8 -8 -8 -7 -6 -6 -6 -5 -5 -5 -5 -5 -4 -4 -5 -4 -4 -4 -3 -3 -3 -4 -4 -4 -4 -4 -4 -4 -3 -4 -4 -4 -4 -4 -4 -5
-5 -5 -4 -4 -4 -4 -5 -5 -5 -6 -7 -7 -7 -8 -8 -7 -5 -6 -6 -6 -5 -5 -5 -5 -5 -5 -5 -5 -5 -4 -4 -4 -4 -4 -4 -4 -4 -4 -4 -4 -4 -4 -4 -4 -4 -4 -4 -5 -5
-4 -4 -4 -4 -4 -4 -4 -5 -5 -6 -7 -7 -8 -7 -7 -7 -5 -5 -6 -6 -5 -5 -5 -6 -5 -5 -5 -5 -5 -5 -4 -4 -4 -4 -4 -4 -4 -4 -4 -4 -4 -4 -4 -4 -4 -5 -5 -5 -5
-4 -4 -4 -3 -4 -4 -4 -5 -6 -6 -6 -7 -8 -7 -7 -7 -7 -5 -5 -6 -7 -6 -6 -6 -5 -5 -5 -6 -5 -4 -4 -4 -4 -4 -4 -4 -4 -4 -4 -4 -4 -4 -4 -4 -5 -5 -5 -5 -5
-5 -4 -3 -3 -3 -4 -5 -5 -5 -6 -6 -7 -7 -7 -6 -7 -7 -6 -4 -5 -7 -6 -6 -6 -6 -6 -6 -6 -5 -5 -4 -4 -4 -4 -4 -5 -5 -4 -4 -4 -4 -4 -4 -4 -4 -5 -5 -5 -5
-5 -4 -3 -3 -3 -4 -6 -6 -6 -6 -6 -7 -7 -7 -7 -7 -7 -6 -5 -4 -6 -7 -6 -6 -6 -6 -5 -5 -6 -5 -5 -5 -5 -4 -4 -5 -4 -5 -5 -4 -4 -4 -4 -4 -4 -5 -5 -5 -5
-5 -4 -4 -4 -4 -4 -6 -5 -6 -6 -5 -7 -8 -8 -8 -7 -8 -6 -4 -4 -5 -7 -7 -6 -6 -6 -6 -6 -6 -6 -5 -5 -5 -5 -5 -4 -4 -5 -5 -4 -4 -4 -4 -4 -4 -4 -4 -5 -5
-5 -5 -5 -5 -5 -5 -5 -5 -6 -5 -5 -6 -7 -8 -8 -8 -5 -6 -6 -4 -5 -6 -7 -7 -7 -6 -6 -6 -6 -6 -6 -6 -5 -5 -5 -5 -5 -5 -5 -5 -4 -4 -4 -4 -4 -4 -4 -5 -5
-5 -5 -5 -5 -5 -5 -5 -5 -5 -5 -5 -6 -7 -8 -8 -7 -7 -5 -5 -4 -4 -6 -7 -7 -6 -6 -7 -6 -6 -6 -6 -6 -6 -5 -5 -5 -5 -5 -5 -5 -5 -5 -4 -4 -4 -4 -5 -5 -5
-6 -6 -5 -6 -5 -5 -5 -5 -5 -5 -5 -6 -7 -8 -8 -8 -7 -7 -6 -5 -4 -4 -6 -7 -7 -6 -5 -6 -6 -5 -5 -6 -6 -6 -6 -5 -6 -5 -5 -5 -5 -5 -4 -5 -5 -5 -5 -5 -5
-6 -6 -6 -6 -6 -6 -6 -5 -6 -6 -6 -6 -7 -7 -8 -9 -8 -8 -7 -6 -5 -4 -4 -6 -7 -6 -6 -6 -6 -5 -6 -6 -6 -6 -6 -6 -6 -6 -6 -6 -5 -5 -5 -5 -5 -5 -5 -5 -6
-7 -6 -7 -7 -7 -7 -7 -6 -6 -6 -7 -7 -8 -9 -9 -9 -9 -9 -8 -8 -6 -5 -4 -6 -6 -7 -7 -6 -6 -5 -6 -6 -6 -6 -6 -6 -6 -6 -6 -6 -6 -6 -5 -6 -6 -6 -6 -6 -6
-8 -8 -9 -9 -9 -9 -9 -7 -7 -7 -7 -8 -8 -8 -10 -9 -9 -9 -9 -9 -7 -6 -6 -5 -6 -6 -7 -7 -6 -6 -6 -6 -6 -7 -7 -6 -6 -7 -7 -7 -6 -7 -6 -6 -7 -6 -6 -7 -7
-10 -10 -10 -11 -11 -11 -11 -7 -9 -9 -9 -9 -9 -9 -9 -10 -9 -10 -10 -9 -9 -8 -6 -6 -7 -6 -6 -6 -6 -6 -7 -7 -7 -7 -7 -7 -7 -7 -7 -7 -7 -7 -7 -7 -7 -7 -7 -7 -7
-12 -11 -12 -12 -14 -14 -13 -11 -11 -11 -12 -11 -10 -9 -10 -10 -10 -10 -10 -11 -10 -9 -8 -7 -7 -7 -7 -7 -6 -7 -7 -7 -7 -8 -7 -7 -7 -7 -7 -7 -7 -8 -7 -7 -7 -7 -7 -7 -7
-14 -14 -14 -14 -14 -15 -14 -14 -14 -14 -14 -13 -13 -13 -11 -11 -10 -11 -12 -12 -12 -10 -9 -9 -7 -8 -8 -7 -7 -7 -8 -8 -7 -8 -8 -7 -7 -7 -8 -8 -8 -8 -8 -7 -7 -7 -7 -7 -6
-15 -15 -15 -15 -15 -15 -14 -14 -14 -14 -14 -14 -14 -14 -13 -12 -12 -11 -12 -12 -13 -11 -10 -10 -9 -8 -9 -8 -7 -7 -8 -8 -8 -8 -8 -8 -8 -8 -8 -8 -9 -8 -8 -7 -8 -8 -7 -7 -7
-16 -16 -15 -15 -15 -14 -14 -14 -14 -13 -14 -14 -14 -15 -15 -14 -13 -12 -11 -12 -13 -13 -12 -11 -10 -9 -9 -9 -8 -8 -8 -8 -9 -8 -8 -8 -8 -8 -8 -8 -9 -9 -8 -8 -8 -8 -7 -7 -8
-16 -16 -16 -16 -15 -15 -16 -16 -16 -16 -17 -16 -17 -17 -17 -18 -16 -13 -12 -12 -13 -13 -13 -12 -12 -10 -9 -9 -9 -8 -8 -8 -9 -8 -8 -9 -9 -8 -8 -9 -9 -9 -8 -8 -8 -7 -8 -8 -8
-16 -17 -16 -15 -15 -15 -16 -16 -16 -18 -18 -18 -18 -18 -18 -18 -18 -16 -15 -13 -13 -13 -13 -13 -13 -12 -9 -10 -10 -9 -8 -9 -8 -9 -10 -10 -9 -8 -9 -9 -9 -9 -9 -8 -8 -8 -8 -8 -8
-15 -16 -16 -15 -15 -16 -16 -17 -15 -18 -17 -17 -18 -19 -18 -18 -18 -17 -17 -16 -14 -13 -13 -13 -13 -12 -11 -9 -10 -11 -9 -9 -8 -8 -9 -9 -8 -8 -9 -9 -9 -10 -9 -9 -9 -9 -9 -9 -9
-16 -16 -16 -16 -16 -15 -16 -18 -16 -17 -17 -18 -18 -19 -19 -19 -18 -18 -17 -17 -17 -16 -14 -13 -13 -13 -12 -10 -10 -11 -10 -9 -7 -7 -9 -9 -8 -7 -9 -9 -10 -10 -10 -10 -9 -9 -9 -9 -9
-17 -17 -16 -16 -16 -15 -17 -17 -15 -17 -18 -18 -18 -18 -19 -19 -18 -18 -18 -17 -17 -16 -15 -15 -14 -13 -12 -11 -10 -10 -10 -9 -9 -7 -8 -9 -9 -8 -9 -10 -10 -10 -10 -10 -10 -9 -9 -9 -9
-17 -18 -18 -17 -16 -16 -16 -16 -16 -17 -18 -18 -17 -17 -18 -18 -18 -18 -18 -18 -18 -17 -16 -15 -15 -13 -12 -12 -10 -10 -10 -10 -9 -7 -8 -9 -9 -10 -10 -10 -10 -10 -10 -11 -10 -9 -9 -9 -9
-16 -17 -18 -18 -17 -16 -15 -15 -16 -17 -18 -18 -18 -18 -18 -18 -18 -18 -18 -18 -17 -18 -17 -17 -16 -14 -13 -12 -10 -10 -10 -10 -9 -8 -8 -9 -9 -10 -10 -10 -10 -10 -12 -11 -10 -10 -10 -10 -9
-17 -16 -17 -18 -18 -17 -16 -16 -16 -17 -17 -17 -18 -18 -18 -18 -18 -17 -17 -18 -17 -17 -18 -16 -16 -15 -13 -12 -11 -11 -10 -10 -9 -9 -8 -9 -9 -10 -10 -10 -10 -10 -11 -11 -10 -10 -10 -10 -10
-18 -18 -18 -18 -18 -18 -17 -16 -16 -17 -18 -18 -18 -18 -19 -19 -19 -18 -17 -17 -16 -17 -17 -17 -15 -15 -14 -12 -11 -12 -11 -10 -9 -9 -10 -9 -8 -9 -9 -10 -10 -10 -11 -10 -10 -10 -10 -10 -10
-18 -18 -19 -19 -19 -19 -19 -15 -17 -18 -18 -17 -17 -18 -18 -18 -18 -17 -16 -17 -17 -17 -17 -17 -16 -15 -14 -13 -12 -11 -10 -10 -9 -10 -9 -7 -9 -9 -9 -10 -10 -10 -11 -10 -10 -10 -10 -10 -10
Height
5891 5894 5896 5899 5905 5907 5912 5915 5915 5916 5911 5910 5905 5908 5908 5911 5917 5920 5917 5919 5921 5923 5920 5921 5922 5923 5923 5923 5925 5925 5926 5925 5925 5924 5924 5924 5924 5923 5923 5922 5921 5921 5920 5919 5917 5915 5914 5912 5910
5888 5891 5893 5895 5899 5903 5909 5910 5915 5911 5908 5907 5901 5906 5909 5909 5913 5917 5917 5918 5921 5921 5920 5921 5922 5922 5923 5923 5925 5925 5926 5926 5926 5925 5924 5924 5924 5924 5923 5923 5922 5921 5919 5918 5917 5915 5912 5910 5909
5885 5888 5889 5890 5894 5902 5905 5906 5908 5907 5904 5905 5904 5902 5906 5908 5911 5914 5916 5917 5918 5920 5919 5921 5922 5922 5922 5923 5924 5925 5926 5926 5926 5925 5924 5924 5924 5924 5923 5923 5921 5920 5919 5917 5916 5913 5911 5909 5906
5882 5884 5885 5886 5892 5897 5901 5902 5902 5904 5904 5902 5901 5895 5897 5904 5909 5913 5915 5916 5917 5917 5919 5920 5921 5921 5922 5922 5923 5924 5925 5925 5925 5924 5924 5924 5924 5923 5923 5922 5921 5920 5918 5917 5915 5912 5910 5907 5905
5876 5878 5878 5883 5888 5893 5895 5897 5896 5898 5899 5898 5894 5894 5887 5896 5903 5910 5911 5912 5913 5915 5917 5919 5919 5919 5920 5921 5922 5924 5924 5924 5925 5924 5924 5923 5923 5922 5922 5921 5920 5919 5917 5915 5913 5911 5909 5906 5904
5870 5871 5872 5877 5883 5885 5886 5890 5888 5890 5890 5891 5887 5883 5884 5886 5892 5901 5906 5908 5909 5911 5913 5915 5916 5917 5918 5919 5921 5922 5923 5924 5923 5924 5923 5923 5922 5921 5920 5920 5918 5917 5916 5915 5912 5910 5907 5905 5902
5862 5863 5865 5870 5874 5876 5880 5881 5882 5883 5886 5885 5883 5881 5879 5882 5886 5890 5898 5903 5904 5906 5908 5911 5913 5914 5916 5917 5919 5920 5922 5922 5922 5922 5921 5921 5920 5919 5919 5917 5917 5915 5914 5913 5911 5908 5906 5903 5900
5854 5853 5858 5861 5865 5866 5870 5872 5873 5875 5878 5880 5877 5875 5873 5876 5877 5880 5887 5894 5898 5900 5903 5906 5909 5911 5913 5914 5916 5917 5919 5919 5920 5920 5919 5919 5918 5917 5917 5916 5915 5913 5912 5910 5909 5906 5903 5901 5898
5845 5845 5850 5853 5851 5853 5857 5857 5860 5863 5868 5872 5872 5868 5867 5863 5866 5871 5878 5883 5890 5894 5897 5900 5903 5906 5908 5910 5912 5914 5915 5916 5917 5916 5916 5916 5915 5915 5914 5913 5912 5911 5909 5908 5905 5902 5900 5898 5894
5835 5837 5840 5841 5840 5841 5842 5844 5851 5853 5857 5863 5865 5860 5858 5857 5853 5856 5864 5874 5882 5887 5890 5892 5896 5901 5904 5906 5908 5910 5911 5912 5913 5913 5913 5913 5912 5911 5911 5910 5909 5908 5907 5905 5902 5899 5898 5895 5892
5827 5828 5829 5829 5829 5827 5829 5833 5836 5842 5848 5849 5851 5851 5848 5850 5850 5848 5851 5856 5869 5878 5882 5884 5888 5892 5897 5900 5902 5904 5906 5907 5908 5909 5909 5909 5908 5907 5907 5906 5906 5905 5904 5902 5899 5897 5895 5891 5888
5815 5814 5814 5815 5813 5813 5816 5816 5824 5829 5836 5832 5836 5839 5840 5836 5840 5842 5840 5848 5853 5865 5871 5877 5877 5884 5888 5892 5896 5898 5899 5901 5902 5903 5905 5904 5904 5904 5904 5903 5902 5901 5900 5898 5896 5894 5892 5888 5885
5801 5802 5800 5800 5799 5798 5799 5803 5806 5817 5822 5823 5824 5827 5830 5832 5828 5830 5834 5831 5841 5852 5864 5866 5871 5875 5879 5883 5887 5890 5892 5894 5896 5897 5899 5899 5899 5899 5899 5898 5898 5897 5896 5895 5892 5891 5889 5885 5882
5787 5786 5786 5785 5784 5780 5780 5786 5784 5797 5801 5803 5810 5816 5819 5820 5825 5821 5824 5825 5826 5838 5849 5861 5863 5866 5869 5874 5880 5881 5884 5886 5888 5891 5893 5893 5894 5894 5894 5894 5894 5893 5892 5890 5889 5887 5885 5882 5878
5768 5770 5770 5773 5767 5763 5763 5766 5771 5774 5777 5782 5786 5793 5799 5805 5808 5815 5814 5819 5818 5822 5837 5845 5855 5859 5861 5864 5868 5871 5874 5877 5880 5884 5887 5888 5889 5890 5889 5890 5890 5889 5887 5886 5885 5883 5880 5878 5876
5751 5749 5750 5754 5747 5749 5744 5750 5755 5754 5753 5757 5764 5771 5779 5785 5791 5794 5802 5804 5810 5809 5822 5831 5839 5851 5853 5855 5858 5860 5863 5868 5872 5876 5879 5881 5884 5885 5885 5885 5887 5885 5884 5883 5880 5878 5877 5876 5873
5733 5731 5730 5735 5733 5731 5730 5730 5736 5738 5737 5735 5739 5748 5756 5763 5771 5780 5786 5790 5797 5799 5801 5816 5817 5833 5843 5846 5846 5849 5853 5859 5862 5867 5872 5875 5878 5879 5879 5879 5881 5880 5879 5878 5877 5876 5873 5871 5868
5720 5715 5715 5717 5727 5716 5717 5713 5719 5720 5719 5718 5721 5728 5736 5745 5750 5761 5768 5772 5776 5785 5786 5797 5804 5810 5824 5832 5836 5837 5843 5850 5855 5858 5864 5868 5871 5873 5874 5876 5876 5876 5875 5873 5871 5869 5866 5865 5862
5707 5705 5705 5709 5709 5702 5704 5703 5706 5705 5700 5702 5705 5706 5713 5722 5735 5742 5755 5759 5763 5768 5771 5774 5787 5795 5805 5818 5822 5828 5833 5839 5845 5850 5855 5860 5864 5866 5868 5871 5871 5871 5870 5868 5865 5862 5860 5858 5855
5696 5694 5696 5696 5694 5692 5688 5681 5682 5686 5682 5683 5686 5690 5693 5699 5711 5724 5737 5747 5753 5755 5757 5762 5769 5776 5788 5800 5809 5816 5822 5826 5833 5838 5843 5851 5855 5858 5861 5864 5865 5865 5862 5861 5858 5855 5855 5853 5850
5689 5685 5685 5682 5681 5678 5669 5664 5666 5664 5656 5660 5664 5671 5676 5681 5686 5705 5717 5734 5741 5746 5748 5750 5754 5763 5771 5784 5794 5804 5808 5802 5821 5831 5836 5842 5848 5850 5855 5857 5858 5859 5857 5854 5852 5851 5850 5848 5845
5681 5680 5677 5674 5670 5666 5660 5656 5661 5651 5652 5651 5652 5657 5662 5668 5675 5685 5694 5703 5720 5734 5737 5739 5743 5744 5760 5765 5776 5789 5803 5809 5815 5827 5831 5837 5839 5843 5848 5850 5851 5851 5850 5848 5848 5846 5845 5843 5841
5674 5671 5668 5666 5662 5658 5658 5651 5650 5647 5645 5643 5644 5645 5652 5658 5659 5667 5673 5682 5693 5711 5720 5725 5729 5730 5741 5753 5761 5777 5790 5799 5809 5818 5820 5826 5831 5834 5840 5842 5843 5843 5842 5843 5843 5841 5839 5838 5836
5667 5662 5661 5659 5655 5649 5654 5645 5644 5643 5642 5641 5639 5638 5639 5644 5646 5651 5658 5665 5672 5682 5697 5702 5710 5717 5723 5740 5751 5767 5780 5789 5798 5808 5811 5816 5822 5827 5833 5834 5836 5836 5837 5837 5836 5834 5833 5832 5829
5658 5654 5650 5648 5646 5643 5645 5637 5637 5642 5639 5636 5637 5636 5635 5636 5640 5644 5649 5657 5664 5667 5673 5681 5689 5701 5712 5724 5740 5756 5769 5777 5789 5798 5803 5807 5813 5820 5825 5826 5828 5829 5830 5831 5829 5827 5827 5826 5824
5654 5648 5643 5635 5636 5635 5635 5628 5633 5631 5629 5628 5628 5630 5630 5630 5631 5634 5637 5640 5647 5654 5662 5670 5675 5686 5698 5711 5728 5748 5755 5766 5776 5786 5792 5799 5804 5812 5814 5817 5819 5822 5824 5823 5823 5821 5820 5820 5819
5645 5640 5638 5626 5628 5621 5622 5622 5624 5624 5621 5619 5617 5617 5617 5620 5622 5624 5624 5629 5633 5637 5645 5653 5662 5672 5683 5696 5720 5734 5743 5751 5764 5776 5783 5790 5794 5800 5803 5808 5812 5814 5813 5816 5816 5814 5814 5813 5812
5633 5634 5631 5624 5615 5612 5612 5610 5610 5611 5610 5610 5608 5607 5607 5607 5607 5609 5612 5616 5619 5624 5628 5631 5646 5657 5671 5689 5703 5715 5729 5741 5753 5765 5775 5781 5783 5785 5791 5797 5801 5802 5805 5809 5809 5808 5807 5806 5804
5632 5623 5619 5617 5612 5602 5596 5596 5600 5600 5599 5599 5596 5595 5597 5596 5596 5594 5596 5602 5606 5607 5613 5613 5628 5642 5659 5676 5687 5701 5717 5729 5742 5753 5762 5769 5765 5773 5777 5785 5790 5793 5800 5803 5802 5801 5801 5799 5798
5623 5618 5613 5606 5600 5595 5589 5580 5589 5590 5586 5587 5583 5582 5582 5581 5580 5578 5578 5583 5587 5591 5597 5605 5615 5628 5644 5661 5675 5689 5707 5721 5731 5741 5753 5740 5751 5757 5767 5774 5781 5788 5792 5796 5796 5796 5795 5794 5792
Wind_Speed
21 21 22 21 22 18 15 18 20 9 12 9 6 18 28 26 15 10 8 8 8 8 6 5 6 3 3 3 4 5 5 5 5 5 4 4 5 4 3 1 1 4 6 9 11 12 13 14 14
21 22 23 23 23 19 14 19 19 20 20 17 8 16 23 27 23 12 15 15 15 11 6 4 5 5 3 4 5 6 7 7 6 5 5 5 5 3 2 3 4 6 7 10 13 15 15 15 16
22 23 25 24 22 15 15 20 22 26 24 25 15 16 19 25 24 18 18 20 20 12 5 4 5 6 5 6 7 5 6 8 7 6 6 5 4 4 4 5 6 7 9 12 15 17 16 17 18
22 25 27 26 21 19 17 21 24 28 32 32 29 24 24 27 30 18 22 20 20 17 11 9 10 4 2 5 7 8 7 8 8 8 7 6 5 5 6 8 8 9 10 13 16 19 18 18 19
26 27 30 26 23 18 21 21 27 26 32 26 24 35 38 36 35 24 15 20 23 22 20 16 16 15 10 7 7 10 9 11 9 8 8 7 6 6 9 9 10 10 12 14 17 19 20 19 20
32 30 31 28 24 25 27 26 30 33 36 34 35 42 41 39 37 31 24 18 26 27 25 21 21 21 17 14 11 10 10 11 12 11 10 9 9 10 10 10 11 11 14 15 17 19 21 22 22
37 38 36 33 31 33 31 32 33 34 37 38 42 43 45 44 40 37 26 22 28 29 29 23 23 23 20 19 17 14 11 13 14 15 14 12 12 11 12 11 12 13 14 16 18 20 22 24 26
42 42 38 37 37 37 37 38 39 40 39 43 46 48 49 46 46 43 36 28 27 33 33 30 26 25 24 22 19 17 15 14 15 17 18 16 15 14 12 11 13 14 15 16 19 21 24 26 29
42 45 43 42 45 45 44 47 48 47 46 43 46 51 49 48 48 49 43 37 32 32 36 36 31 29 27 24 21 18 17 16 19 21 18 17 17 16 14 13 14 15 15 18 20 23 26 29 29
43 43 43 43 46 49 50 52 50 53 51 48 44 55 55 56 58 51 50 43 34 33 36 41 38 31 30 27 23 23 21 21 21 21 21 20 17 18 15 15 15 16 17 19 21 23 27 28 27
41 44 44 47 49 52 53 53 54 54 54 55 55 55 59 61 61 64 59 55 43 40 38 40 42 40 34 34 29 27 27 25 24 23 21 21 20 19 16 16 17 17 18 20 22 24 26 28 27
41 43 45 47 51 55 56 59 57 57 55 58 60 61 62 65 66 67 68 63 54 45 44 39 47 41 39 35 31 33 30 29 27 26 23 23 21 19 18 17 17 19 20 21 23 23 25 28 26
43 42 47 49 52 57 60 61 60 58 59 58 59 63 65 65 67 69 70 72 66 57 46 47 44 43 40 40 40 38 33 32 33 30 26 25 22 19 19 18 17 19 21 23 24 23 25 25 24
44 48 45 47 50 56 59 61 65 64 62 64 61 62 67 71 71 72 73 74 73 65 55 48 47 46 43 42 40 37 39 37 36 33 30 26 23 20 20 19 19 20 21 24 24 23 25 24 24
51 49 47 45 49 55 58 62 63 64 66 69 68 68 73 78 76 78 77 75 78 76 63 56 50 51 51 46 43 42 42 41 38 35 32 29 25 22 22 21 21 21 23 23 21 22 24 21 22
54 52 49 44 50 52 58 63 59 60 65 69 69 72 74 78 84 80 80 80 79 80 72 65 58 55 54 53 49 47 47 43 40 39 36 32 27 25 24 23 22 24 25 21 22 22 18 22 24
47 52 49 46 44 48 52 58 56 56 59 65 68 72 75 78 82 83 80 76 80 83 80 70 72 62 57 56 54 52 50 47 45 42 38 34 29 27 25 23 22 24 25 23 19 22 24 23 23
44 47 48 47 39 47 48 52 50 52 56 60 62 63 67 69 81 84 77 73 74 83 85 74 70 70 62 59 60 59 53 50 49 45 40 36 33 30 24 22 23 25 24 25 22 21 24 25 28
41 39 39 34 35 44 46 52 54 56 60 61 62 63 64 67 66 83 82 73 68 77 83 80 71 69 65 60 64 60 59 53 51 48 43 39 35 30 26 24 23 25 24 24 21 19 24 25 25
31 32 30 31 36 42 47 55 60 64 68 66 68 65 65 66 69 68 83 81 71 69 78 82 77 75 70 67 66 67 65 61 56 50 46 42 36 32 28 25 25 23 24 25 20 23 24 23 24
28 33 32 36 37 41 44 47 42 41 47 54 60 61 58 59 65 62 64 74 81 72 71 81 81 79 73 66 70 72 67 48 57 50 44 41 40 33 29 27 26 24 25 26 26 27 23 22 24
29 30 32 32 35 38 38 40 16 27 32 32 40 64 58 58 58 56 57 64 77 86 79 79 82 81 77 69 68 64 67 67 39 47 45 46 42 39 33 30 28 26 26 29 28 24 21 20 22
31 33 33 32 34 36 31 30 18 17 23 29 28 34 62 54 55 52 54 60 60 75 85 82 87 89 82 77 69 54 54 48 50 51 52 47 45 42 35 32 29 28 28 28 27 22 19 20 20
31 32 34 33 33 38 22 33 9 16 16 19 26 29 38 52 56 42 50 56 58 63 83 92 93 93 88 78 74 57 49 52 57 49 52 53 48 45 37 35 31 29 29 30 24 21 19 19 19
30 33 35 35 35 36 27 39 27 21 22 24 24 27 36 43 46 44 47 59 60 59 62 66 90 95 90 81 77 61 50 53 54 55 51 51 47 44 39 37 32 31 30 29 23 20 17 19 20
26 31 37 41 39 38 37 39 26 27 28 30 26 28 29 36 43 45 51 53 51 57 55 58 77 88 84 82 74 61 52 53 57 57 51 49 48 46 45 41 36 34 30 26 23 20 20 22 20
28 30 33 43 39 44 39 35 31 26 28 28 31 28 25 35 37 38 44 48 38 54 70 70 73 83 83 82 68 64 59 57 56 57 52 52 55 47 49 46 39 35 28 27 23 21 22 22 20
36 32 32 39 47 46 42 42 34 34 30 29 33 36 37 38 40 42 41 44 47 47 62 76 76 79 76 70 66 65 63 59 57 55 52 53 59 56 52 54 45 32 28 24 23 22 23 22 22
29 35 37 38 42 48 49 46 39 37 38 35 37 37 34 38 40 43 43 43 40 46 63 73 73 72 73 66 68 63 62 57 54 53 53 51 57 55 50 41 37 27 28 23 22 24 23 23 24
28 25 27 32 40 47 49 52 45 44 45 39 42 40 41 39 43 49 51 41 43 55 53 72 81 73 64 65 62 63 59 55 54 55 52 55 43 44 47 34 41 34 20 23 24 22 24 24 24
Wind_Direction
235 236 235 236 239 234 213 205 196 184 231 235 307 300 297 296 294 301 337 325 254 259 257 284 290 280 287 292 263 264 257 229 208 193 205 202 199 191 206 193 326 336 336 343 340 337 337 338 337
235 238 242 238 236 234 219 216 201 202 223 225 257 270 280 288 291 285 287 277 278 272 255 276 284 262 273 295 274 273 263 249 232 207 201 191 220 236 281 313 321 331 335 336 339 339 337 334 341
236 236 241 243 239 232 220 217 212 210 231 240 248 288 267 267 273 270 268 270 272 269 245 247 265 269 254 248 263 274 282 268 248 227 204 224 250 278 308 308 310 319 334 339 342 342 340 342 342
242 245 243 242 238 229 222 223 219 215 234 248 252 253 272 261 253 261 244 246 250 253 239 229 233 229 357 282 268 265 277 284 253 232 226 244 260 281 295 303 303 316 337 340 340 343 344 337 340
246 246 249 247 241 231 231 219 228 224 221 224 240 253 269 271 268 254 239 259 256 252 243 237 238 244 272 297 299 272 276 269 258 241 245 254 264 280 297 302 304 318 326 333 341 343 340 338 338
251 252 253 252 244 236 231 221 224 220 219 218 227 248 251 259 272 267 248 248 255 255 253 240 242 244 258 282 291 284 265 264 250 246 248 252 263 277 288 295 297 304 316 327 336 338 337 337 337
248 251 254 254 247 239 235 234 226 225 222 220 235 241 253 255 256 264 253 237 249 249 250 248 242 246 257 267 275 276 262 258 253 244 243 242 258 273 283 285 292 296 307 320 330 334 337 334 337
249 252 256 256 252 245 245 242 238 232 225 225 234 238 244 248 254 254 251 245 240 246 244 244 243 246 254 256 258 265 258 246 242 243 246 252 256 265 273 285 288 291 302 315 322 329 335 335 338
254 255 255 254 253 251 246 242 241 238 231 228 227 236 243 243 252 255 255 249 241 243 245 245 240 244 246 250 257 258 256 244 241 241 250 258 256 258 272 282 288 292 299 309 317 329 333 335 339
260 261 261 257 254 252 250 247 243 242 241 235 232 239 239 247 255 256 257 249 239 235 243 244 235 236 244 251 253 256 257 250 249 253 251 253 253 258 274 280 285 290 298 305 315 326 330 333 338
265 266 264 262 258 256 251 248 248 244 242 240 234 233 239 242 248 258 260 257 235 221 227 242 245 244 238 246 255 252 255 255 255 255 254 252 260 266 273 279 283 288 297 305 316 321 326 332 335
272 271 267 264 262 261 258 256 248 245 241 241 239 235 232 240 243 249 255 254 259 227 223 231 244 239 243 243 248 252 251 254 255 255 254 255 262 267 275 281 289 293 298 305 311 320 326 332 332
275 273 271 269 266 263 259 256 253 246 244 239 239 239 237 228 239 244 249 255 254 253 232 226 238 237 235 236 242 242 241 249 251 253 255 255 261 266 276 282 289 294 299 304 309 319 325 330 333
280 281 277 271 267 263 260 256 255 250 240 237 236 234 235 233 227 238 245 251 256 253 250 233 232 240 235 237 240 238 241 243 245 249 252 254 260 266 273 279 287 293 300 304 313 318 323 333 330
288 281 278 272 261 260 260 259 256 254 248 240 237 228 225 228 230 230 235 239 253 255 251 249 235 233 238 237 235 237 238 237 240 245 249 253 256 264 271 276 286 296 300 308 317 316 326 326 320
288 284 276 266 262 259 257 262 256 254 251 248 238 235 229 225 230 231 232 234 238 252 253 251 249 240 235 239 238 237 237 236 238 241 243 247 251 257 266 272 283 292 299 307 316 321 320 312 311
281 280 276 271 262 261 259 261 260 257 256 255 249 237 232 227 224 231 232 233 235 241 249 247 248 243 237 235 239 237 236 237 235 239 243 245 247 252 261 273 284 292 297 303 313 311 311 315 311
273 273 273 275 265 263 263 262 261 258 258 258 259 253 243 232 229 222 226 224 229 237 245 244 242 245 237 234 236 238 235 234 237 238 241 244 249 251 257 270 278 287 295 297 302 307 307 310 312
275 273 273 270 266 263 261 264 262 261 261 258 258 259 252 243 233 230 219 217 215 231 239 240 238 239 241 232 234 233 237 231 233 237 239 243 249 255 261 268 275 283 291 292 302 296 297 310 312
274 277 279 277 280 284 284 277 269 266 265 259 256 254 255 254 240 230 230 218 213 218 231 238 237 233 236 235 229 233 235 229 227 229 234 239 246 251 260 268 272 283 289 292 292 288 301 310 311
281 283 283 287 289 290 291 290 300 281 264 255 244 242 235 239 247 242 235 226 217 218 223 236 239 236 232 233 234 230 237 220 223 226 235 242 247 252 257 266 271 279 284 286 285 292 301 305 305
275 280 280 289 293 293 285 299 281 275 271 270 252 233 235 233 240 247 246 237 223 217 223 230 238 241 234 232 234 236 235 239 256 224 234 239 246 251 256 262 267 277 279 281 285 293 295 300 298
292 284 281 283 286 287 298 294 291 279 257 266 257 251 236 243 246 232 230 238 233 219 216 225 231 240 241 235 234 234 232 230 234 238 235 237 243 249 253 259 264 272 277 281 285 287 296 291 288
288 284 281 279 284 284 291 288 319 253 267 265 250 247 239 239 244 240 235 228 233 232 212 221 227 234 239 236 236 232 223 220 228 228 228 238 235 245 249 255 262 269 276 284 288 287 291 277 284
285 280 277 273 274 282 280 275 281 282 272 277 261 257 249 237 239 244 247 250 246 235 223 217 222 227 233 236 234 232 223 216 221 229 229 233 236 248 248 253 258 264 275 286 284 286 282 275 282
284 281 277 280 278 277 274 270 285 284 275 271 267 272 259 247 244 244 248 247 236 230 231 221 222 220 226 233 231 228 224 220 228 228 230 227 235 239 243 248 253 260 274 284 283 280 274 277 285
289 282 274 274 274 277 280 278 277 270 271 277 285 281 262 251 253 261 254 244 240 227 214 215 218 221 220 228 228 225 220 215 222 227 227 224 229 232 239 245 248 253 271 281 275 271 272 277 285
293 293 277 271 278 281 279 283 280 281 285 276 277 275 272 270 272 266 248 249 244 223 224 210 210 220 216 220 221 222 222 214 212 215 222 222 229 230 232 241 238 252 268 272 266 266 267 271 279
281 287 284 282 277 281 285 278 274 279 280 277 275 273 272 271 258 258 256 253 234 221 222 224 203 213 214 213 215 217 219 216 211 213 219 242 217 232 234 237 244 246 262 262 258 256 262 269 278
301 290 276 267 268 264 268 279 279 276 277 280 283 286 291 275 261 259 261 262 238 233 240 225 204 206 204 204 211 212 213 216 212 211 217 217 239 216 243 240 236 240 251 250 250 257 264 269 277